Regional Weather Roundup
Issued by NWS

Home | Current Version | Previous Version | Text Only | Print | Product List | Glossary On
Versions: 1 2 3 4 5 6 7 8 9 10 11 12 13 14 15 16 17 18 19 20 21 22 23 24 25 26 27
000
ASCA42 TJSJ 290710
RWRPR
PUERTO RICO/U.S. VIRGIN ISLANDS HOURLY WEATHER ROUNDUP
NATIONAL WEATHER SERVICE SAN JUAN PR
300 AM AST SUN MAY 29 2016

PRZ001-004-290800-
PUERTO RICO

CITY           SKY/WX    TMP DP  RH WIND       PRES   REMARKS
SAN JUAN LMM   PTCLDY    77  75  94 E6        30.00S
CEIBA          MOCLDY    75  75 100 W3        30.02S
$$

PRZ006-007-290800-
U.S. VIRGIN ISLANDS

CITY           SKY/WX    TMP DP  RH WIND       PRES   REMARKS
CHARLOTTE AMA  CLEAR     82  75  78 VRB6      29.99F
CHRISTIANSTED  LGT RAIN  75  73  94 NE6       30.00F FOG
$$

HOURLY WEATHER ROUNDUP FOR THE NEWS MEDIA

CITY           SKY/WX    TMP DP  RH WIND       PRES   REMARKS
ORLANDO        PTCLDY    76  69  79 CALM      30.05F
NEW YORK       PTCLDY    64  54  69 S6        30.15S
NEWARK         CLEAR     73  55  53 SW7       30.13S
CHICAGO        CLOUDY    66  60  81 S9        29.94F
HARTFORD       CLEAR     63  53  70 S6        30.11S
BOSTON         PTCLDY    67  61  81 NE6       30.11R
DALLAS         CLOUDY    80  72  76 E3        30.03R
PHILADELPHIA   PTCLDY    69  60  73 S6        30.14F
LOS ANGELES    CLOUDY    60  53  77 NW6       29.97S
WASHINGTON DC  FAIR      67  61  81 S5        30.13F



USA.gov is the U.S. government's official web portal to all federal, state and local government web resources and services.